#timestamp,LO_Frequency,Hit,StdDev 
1458270015.5,286047004.9,N
1458270035.3,286047003.5,N
1458270055.2,286047001.4,N
1458270075.9,286047005.0,N
1458270095.7,286047005.1,N
1458270115.6,286047004.0,N
1458270135.4,286047001.7,N
1458270155.2,286047002.8,N
1458270175.0,286046998.2,N
1458270175.9,286046998.2,N
1458270195.8,286047003.3,N
1458270215.6,286047008.7,N
1458270235.4,286047006.4,N
1458270255.3,286047008.3,N
1458270275.1,286047008.6,N
1458270295.8,286047006.6,N
1458270315.7,286047006.3,N
1458270335.5,286047006.2,N
1458270355.3,286047008.9,Y
1458270375.2,286047004.4,P
1458270395.9,286047003.6,P
1458270415.7,286047001.5,P
1458270435.6,286047003.2,N
1458270455.4,286047003.5,Y
1458270475.2,286047004.3,P
1458270495.1,286047001.2,N
1458270496.0,286047001.2,N
1458270515.8,286047000.3,N
1458270535.6,286047001.1,N
1458270555.5,286046997.7,N
1458270575.3,286046996.8,N
1458270595.1,286047000.8,N
1458270615.9,286046998.1,N
1458270635.7,286046999.0,N
1458270655.5,286046999.2,N
1458270675.3,286046997.9,N
1458270695.2,286046997.6,N
1458270715.0,286046996.0,N
1458270715.9,286046996.0,N
1458270735.7,286046994.5,N
1458270755.6,286046995.5,N
1458270775.4,286046994.7,N
1458270795.2,286046992.5,N
1458270815.1,286046993.3,N
1458270816.0,286046993.3,N
1458270835.8,286046995.0,N
1458270855.6,286046993.9,N
1458270875.5,286046997.7,N
1458270895.3,286046995.5,N
1458270915.1,286046992.0,N
1458270935.9,286046993.7,N
1458270955.7,286046994.7,N
1458270975.5,286046992.6,N
1458270995.3,286046990.9,N
1458271015.2,286046990.6,N
1458271035.0,286046988.3,Y
1458271035.9,286046988.3,P
1458271055.8,286046991.0,N
1458271075.6,286046990.7,N
1458271095.4,286046994.3,N
1458271115.2,286046991.8,N
1458271135.1,286046994.3,N
1458271136.0,286046994.3,N
1458271155.8,286046991.0,Y
1458271175.6,286046998.1,P
1458271195.5,286046998.3,N
1458271215.3,286046999.3,N
1458271235.1,286047001.0,N
1458271255.9,286046998.2,N
1458271275.7,286046997.5,N
1458271295.5,286046994.1,N
1458271315.4,286046994.3,N
1458271335.2,286046993.3,N
1458271355.0,286046994.4,N
1458271355.9,286046994.4,N
1458271375.8,286046993.8,N
1458271395.6,286046994.6,N
1458271415.4,286046990.8,Y
1458271435.3,286046993.4,P
1458271455.1,286046997.7,N
1458271456.0,286046997.7,N
1458271475.8,286046998.5,N
1458271495.7,286046999.6,N
1458271515.5,286046995.1,N
1458271535.3,286046997.0,N
1458271555.1,286046999.3,N
1458271575.9,286046997.7,N
1458271595.7,286046994.1,Y
1458271615.5,286046997.5,P
1458271635.4,286046997.8,P
1458271655.2,286046993.6,P
1458271675.0,286046995.1,N
1458271676.0,286046995.1,Y
1458271695.8,286046995.5,P
1458271715.6,286046999.1,N
1458271735.4,286047000.1,N
1458271755.3,286047005.8,Y
1458271775.1,286047008.5,P
1458271795.8,286047008.4,N
1458271815.7,286047008.5,N
1458271835.5,286047006.1,N
1458271855.3,286047009.1,N
1458271875.2,286047003.7,N
1458271895.9,286047001.7,N
1458271915.2,286047003.0,N
1458271935.0,286047001.9,N
1458271935.9,286047001.9,N
1458271955.8,286047005.8,N
1458271975.6,286047005.6,N
1458271995.4,286047003.7,N
1458272015.2,286047002.4,N
1458272035.1,286046999.7,N
1458272036.0,286046999.7,N
1458272055.8,286047002.6,N
1458272075.6,286047004.1,N
1458272095.5,286047002.5,N
1458272115.3,286046998.7,N
1458272135.1,286047002.3,N
1458272155.9,286047001.4,N
1458272175.7,286047004.8,N
1458272195.5,286047003.3,N
1458272215.4,286047005.1,N
1458272235.2,286047003.5,N
1458272255.0,286047001.4,N
1458272255.9,286047001.4,N
1458272275.8,286047003.0,N
1458272295.6,286047003.8,N
1458272315.4,286047000.1,N
1458272335.3,286046999.7,N
1458272355.1,286047000.5,N
1458272356.0,286047000.5,N
1458272375.8,286046998.8,N
1458272395.6,286047000.8,N
1458272415.5,286047002.1,N
1458272435.3,286047002.1,N
1458272455.1,286047001.6,N
1458272475.9,286047002.5,N
1458272495.7,286046999.4,N
1458272515.5,286046998.6,N
1458272535.4,286046994.6,Y
1458272555.2,286046991.0,P
1458272575.0,286046992.0,N
1458272575.9,286046992.0,N
1458272595.8,286046994.2,N
1458272615.6,286046992.9,N
1458272635.4,286046992.8,N
1458272655.3,286046989.4,Y
1458272675.1,286046996.4,P
1458272695.8,286046996.3,N
1458272715.7,286046996.4,P
1458272735.5,286046997.3,N
1458272755.3,286046996.1,Y
1458272775.2,286046999.0,P
1458272795.9,286046999.6,N
1458272815.7,286046999.1,N
1458272835.6,286046998.6,N
1458272855.4,286047001.0,N
1458272875.2,286047002.8,N
1458272895.1,286047002.6,N
1458272896.0,286047002.6,N
1458272915.8,286047001.3,N
1458272935.6,286047000.3,N
1458272955.4,286046998.2,N
1458272975.3,286047003.8,N
1458272995.1,286047002.8,N
1458273015.8,286046998.8,N
1458273035.7,286047000.1,N
1458273055.5,286047002.2,N
1458273075.3,286047002.0,N
1458273095.2,286047003.7,N
1458273115.9,286047004.6,N
1458273135.7,286047005.9,N
1458273155.6,286047005.2,N
1458273175.4,286047005.7,N
1458273195.2,286047003.0,N
1458273215.1,286047008.5,Y
1458273216.0,286047008.5,P
1458273235.8,286047007.8,N
1458273255.6,286047009.7,P
1458273275.5,286047011.7,Y
1458273295.3,286047006.4,P
1458273315.1,286047007.1,P
1458273335.9,286047007.2,P
1458273355.7,286047000.9,N
1458273375.5,286047001.0,N
1458273395.3,286047000.6,N
1458273415.2,286046998.6,N
1458273435.0,286046996.8,N
1458273435.9,286046996.8,N
1458273455.7,286046994.9,N
1458273475.6,286046997.0,N
1458273495.4,286047002.3,N
1458273515.2,286047002.9,N
1458273535.1,286047007.5,N
1458273536.0,286047007.5,N
1458273555.8,286047006.7,N
1458273575.6,286047003.2,N
1458273595.5,286047002.0,N
